When you browse on this site, cookies collect data to enhance your experience and personalize the content and advertising you see.
Visit our Privacy Policy to learn more. By continuing to use the site, you agree to this use of cookies and data.
  • In United Kingdom
  • List of Countries
  • For 7 days
  • Water Temperature
  • Satellite Maps
  • Weather Map
  • Weather Widgets
  • user-avatar
    Login

    Hourly Weather Cajamarca

    Today, 21 July, Sunday

    Time Temperature Precipitation Wind Pressure Humidity
    00:00 +10°C° 0 mm 2 mps 543 mmHg 84%
    01:00 +10°C° 0 mm 3 mps 543 mmHg 85%
    02:00 +9°C° 0 mm 3 mps 542 mmHg 85%
    03:00 +9°C° 0 mm 3 mps 542 mmHg 85%
    04:00 +9°C° 0 mm 3 mps 542 mmHg 85%
    05:00 +9°C° 0 mm 3 mps 542 mmHg 84%
    06:00 +9°C° 0 mm 3 mps 542 mmHg 83%
    07:00 +9°C° 0 mm 3 mps 542 mmHg 82%
    08:00 +11°C° 0 mm 3 mps 544 mmHg 71%
    09:00 +14°C° 0 mm 3 mps 546 mmHg 60%
    10:00 +18°C° 0 mm 3 mps 547 mmHg 49%
    11:00 +19°C° 0 mm 3 mps 547 mmHg 46%
    12:00 +20°C° 0 mm 3 mps 548 mmHg 43%
    13:00 +21°C° 0 mm 3 mps 548 mmHg 41%
    14:00 +20°C° 0.1 mm 3 mps 547 mmHg 44%
    15:00 +19°C° 0.1 mm 3 mps 546 mmHg 48%
    16:00 +18°C° 0.1 mm 3 mps 545 mmHg 52%
    17:00 +16°C° 0.1 mm 2 mps 544 mmHg 62%
    18:00 +14°C° 0.1 mm 1 mps 544 mmHg 72%
    19:00 +12°C° 0.1 mm 1 mps 543 mmHg 82%
    20:00 +12°C° 0 mm 1 mps 543 mmHg 83%
    21:00 +11°C° 0 mm 1 mps 543 mmHg 84%
    22:00 +11°C° 0 mm 1 mps 543 mmHg 86%
    23:00 +11°C° 0 mm 1 mps 543 mmHg 86%

    Tomorrow, 22 July, Monday

    Time Temperature Precipitation Wind Pressure Humidity
    00:00 +10°C° 0 mm 2 mps 543 mmHg 86%
    01:00 +9°C° 0 mm 2 mps 543 mmHg 86%
    02:00 +9°C° 0 mm 2 mps 542 mmHg 86%
    03:00 +9°C° 0 mm 2 mps 542 mmHg 86%
    04:00 +8°C° 0 mm 2 mps 541 mmHg 86%
    05:00 +9°C° 0 mm 2 mps 542 mmHg 85%
    06:00 +9°C° 0 mm 2 mps 542 mmHg 84%
    07:00 +9°C° 0 mm 2 mps 543 mmHg 83%
    08:00 +13°C° 0 mm 2 mps 544 mmHg 72%
    09:00 +15°C° 0 mm 2 mps 546 mmHg 61%
    10:00 +18°C° 0 mm 2 mps 548 mmHg 49%
    11:00 +19°C° 0 mm 2 mps 548 mmHg 47%
    12:00 +20°C° 0 mm 3 mps 547 mmHg 45%
    13:00 +20°C° 0 mm 3 mps 547 mmHg 43%
    14:00 +20°C° 0.1 mm 3 mps 547 mmHg 47%
    15:00 +19°C° 0.1 mm 3 mps 546 mmHg 52%
    16:00 +18°C° 0.1 mm 2 mps 545 mmHg 56%
    17:00 +16°C° 0.3 mm 2 mps 544 mmHg 66%
    18:00 +15°C° 0.3 mm 1 mps 544 mmHg 75%
    19:00 +13°C° 0.3 mm 1 mps 543 mmHg 85%
    20:00 +13°C° 0.3 mm 1 mps 544 mmHg 85%
    21:00 +12°C° 0.3 mm 1 mps 544 mmHg 85%
    22:00 +12°C° 0.3 mm 1 mps 544 mmHg 85%
    23:00 +12°C° 0.3 mm 1 mps 544 mmHg 86%

    Day after tomorrow, 23 July, Tuesday

    Time Temperature Precipitation Wind Pressure Humidity
    00:00 +12°C° 0.3 mm 1 mps 544 mmHg 86%
    01:00 +12°C° 0.3 mm 1 mps 544 mmHg 86%
    02:00 +11°C° 0.1 mm 1 mps 544 mmHg 86%
    03:00 +11°C° 0.1 mm 1 mps 543 mmHg 86%
    04:00 +11°C° 0.1 mm 1 mps 543 mmHg 86%
    05:00 +11°C° 0 mm 1 mps 543 mmHg 86%
    06:00 +10°C° 0 mm 2 mps 543 mmHg 86%
    07:00 +10°C° 0 mm 2 mps 543 mmHg 85%
    08:00 +13°C° 0 mm 2 mps 545 mmHg 75%
    09:00 +15°C° 0 mm 2 mps 546 mmHg 64%
    10:00 +18°C° 0 mm 2 mps 548 mmHg 53%
    11:00 +18°C° 0.1 mm 2 mps 548 mmHg 52%
    12:00 +19°C° 0.1 mm 2 mps 547 mmHg 50%
    13:00 +19°C° 0.1 mm 2 mps 547 mmHg 49%
    14:00 +19°C° 0.2 mm 2 mps 546 mmHg 53%
    15:00 +18°C° 0.2 mm 2 mps 546 mmHg 57%
    16:00 +17°C° 0.2 mm 2 mps 545 mmHg 61%
    17:00 +16°C° 0.3 mm 2 mps 544 mmHg 70%
    18:00 +14°C° 0.3 mm 1 mps 544 mmHg 79%
    19:00 +13°C° 0.3 mm 1 mps 543 mmHg 87%
    20:00 +12°C° 0.2 mm 1 mps 544 mmHg 87%
    21:00 +12°C° 0.2 mm 1 mps 544 mmHg 87%
    22:00 +12°C° 0.2 mm 1 mps 544 mmHg 87%
    23:00 +12°C° 0.4 mm 1 mps 544 mmHg 87%

    24 July, Wednesday

    Time Temperature Precipitation Wind Pressure Humidity
    00:00 +12°C° 0.4 mm 1 mps 544 mmHg 88%
    01:00 +12°C° 0.4 mm 1 mps 544 mmHg 88%
    02:00 +11°C° 0.2 mm 1 mps 544 mmHg 88%
    03:00 +11°C° 0.2 mm 1 mps 543 mmHg 88%
    04:00 +11°C° 0.2 mm 1 mps 543 mmHg 88%
    05:00 +11°C° 0 mm 1 mps 543 mmHg 88%
    06:00 +10°C° 0 mm 2 mps 543 mmHg 88%
    07:00 +10°C° 0 mm 2 mps 544 mmHg 88%
    08:00 +13°C° 0 mm 2 mps 545 mmHg 79%
    09:00 +15°C° 0 mm 2 mps 546 mmHg 69%
    10:00 +17°C° 0 mm 2 mps 548 mmHg 60%
    11:00 +17°C° 0.6 mm 2 mps 547 mmHg 60%
    12:00 +18°C° 0.6 mm 2 mps 547 mmHg 59%
    13:00 +18°C° 0.6 mm 2 mps 546 mmHg 59%
    14:00 +18°C° 0.9 mm 2 mps 546 mmHg 62%
    15:00 +17°C° 0.9 mm 2 mps 545 mmHg 65%
    16:00 +17°C° 0.9 mm 2 mps 544 mmHg 68%
    17:00 +15°C° 0.5 mm 1 mps 544 mmHg 74%
    18:00 +14°C° 0.5 mm 1 mps 543 mmHg 81%
    19:00 +13°C° 0.5 mm 1 mps 543 mmHg 88%
    20:00 +12°C° 0.3 mm 1 mps 543 mmHg 89%
    21:00 +12°C° 0.3 mm 1 mps 543 mmHg 90%
    22:00 +11°C° 0.3 mm 1 mps 544 mmHg 91%
    23:00 +12°C° 0.9 mm 1 mps 544 mmHg 91%

    25 July, Thursday

    Time Temperature Precipitation Wind Pressure Humidity
    00:00 +12°C° 0.9 mm 1 mps 544 mmHg 91%
    01:00 +12°C° 0.9 mm 1 mps 543 mmHg 91%
    02:00 +11°C° 0.4 mm 1 mps 543 mmHg 91%
    03:00 +11°C° 0.4 mm 1 mps 543 mmHg 91%
    04:00 +11°C° 0.4 mm 1 mps 542 mmHg 91%
    05:00 +11°C° 0.1 mm 1 mps 543 mmHg 90%
    06:00 +10°C° 0.1 mm 1 mps 543 mmHg 89%
    07:00 +10°C° 0.1 mm 1 mps 543 mmHg 88%
    08:00 +12°C° 0 mm 2 mps 544 mmHg 76%
    09:00 +15°C° 0 mm 2 mps 546 mmHg 64%
    10:00 +17°C° 0 mm 2 mps 547 mmHg 52%
    11:00 +18°C° 0.1 mm 2 mps 547 mmHg 49%
    12:00 +19°C° 0.1 mm 2 mps 547 mmHg 46%
    13:00 +19°C° 0.1 mm 3 mps 547 mmHg 43%
    14:00 +18°C° 0.3 mm 3 mps 546 mmHg 50%
    15:00 +17°C° 0.3 mm 2 mps 545 mmHg 57%
    16:00 +16°C° 0.3 mm 2 mps 544 mmHg 65%
    17:00 +15°C° 0.3 mm 2 mps 544 mmHg 72%
    18:00 +14°C° 0.3 mm 1 mps 543 mmHg 80%
    19:00 +12°C° 0.3 mm 1 mps 543 mmHg 87%
    20:00 +12°C° 0.3 mm 1 mps 543 mmHg 87%
    21:00 +13°C° 0.3 mm 1 mps 544 mmHg 87%
    22:00 +13°C° 0.3 mm 1 mps 544 mmHg 86%
    23:00 +12°C° 0.3 mm 1 mps 544 mmHg 87%

    26 July, Friday

    Time Temperature Precipitation Wind Pressure Humidity
    00:00 +12°C° 0.3 mm 1 mps 544 mmHg 87%
    01:00 +12°C° 0.3 mm 1 mps 544 mmHg 88%
    02:00 +12°C° 0.5 mm 1 mps 543 mmHg 88%
    03:00 +12°C° 0.5 mm 1 mps 543 mmHg 88%
    04:00 +11°C° 0.5 mm 1 mps 543 mmHg 89%
    05:00 +11°C° 0.1 mm 1 mps 543 mmHg 89%
    06:00 +10°C° 0.1 mm 2 mps 543 mmHg 89%
    07:00 +10°C° 0.1 mm 2 mps 543 mmHg 89%
    08:00 +12°C° 0 mm 2 mps 544 mmHg 81%
    09:00 +14°C° 0 mm 2 mps 546 mmHg 73%
    10:00 +16°C° 0 mm 2 mps 547 mmHg 64%
    11:00 +17°C° 0.2 mm 3 mps 547 mmHg 62%
    12:00 +17°C° 0.2 mm 3 mps 547 mmHg 60%
    13:00 +18°C° 0.2 mm 3 mps 547 mmHg 58%
    14:00 +17°C° 0.6 mm 3 mps 546 mmHg 60%
    15:00 +17°C° 0.6 mm 3 mps 545 mmHg 63%
    16:00 +16°C° 0.6 mm 2 mps 545 mmHg 65%
    17:00 +15°C° 0.3 mm 2 mps 544 mmHg 71%
    18:00 +13°C° 0.3 mm 2 mps 544 mmHg 76%
    19:00 +12°C° 0.3 mm 1 mps 543 mmHg 81%
    20:00 +12°C° 0 mm 1 mps 543 mmHg 82%
    21:00 +10°C° 0 mm 2 mps 544 mmHg 82%
    22:00 +10°C° 0 mm 2 mps 544 mmHg 82%
    23:00 +10°C° 0 mm 2 mps 543 mmHg 83%
    Show more